Regional Weather Roundup
Issued by NWS

Home | Current Version | Previous Version | Graphics & Text | Print | Product List | Glossary On
Versions: 1 2 3 4 5 6 7 8 9 10 11 12 13 14 15 16 17 18 19 20 21 22 23 24 25 26 27 28 29 30 31 32 33 34 35 36 37 38 39 40 41 42 43 44 45 46 47 48 49 50
000
ASUS43 KMKX 172200
RWRWI

WISCONSIN REGIONAL WEATHER ROUNDUP
NATIONAL WEATHER SERVICE MILWAUKEE/SULLIVAN WI
500 PM CDT TUE OCT 17 2017

NOTE: "FAIR" INDICATES FEW OR NO CLOUDS BELOW 12,000 FEET WITH NO
SIGNIFICANT WEATHER AND/OR OBSTRUCTIONS TO VISIBILITY.

WIZ001-002-006>008-014>016-023>028-172300-
NORTHWEST WISCONSIN

CITY           SKY/WX    TMP DP  RH WIND       PRES   REMARKS
SUPERIOR ARPT  SUNNY     70  39  32 SW9       29.87F
ASHLAND        SUNNY     70  41  34 S3        29.90F
HAYWARD        SUNNY     69  42  37 S13       29.92F
SIREN          SUNNY     69  40  34 SW7       29.92F
CUMBERLAND     CLOUDY    64  36  34 SW7       29.94F
RICE LAKE      CLOUDY    70  38  31 SW6       29.95S
CHETEK         CLOUDY    69  44  40 SW5       29.95S
LADYSMITH      SUNNY     68  44  42 SW6       29.97S
EAU CLAIRE     NOT AVBL
MENOMONIE      SUNNY     70  45  41 S5        29.95F
NEW RICHMOND   SUNNY     70  41  34 SW6       29.95S
OSCEOLA        SUNNY     70  44  38 S7        29.96F
$$

WIZ003>005-009-010-017-018-172300-
NORTH CENTRAL WISCONSIN

CITY           SKY/WX    TMP DP  RH WIND       PRES   REMARKS
MANITOWISH WTR SUNNY     67  39  36 S7        29.95S
ARBOR VITAE    SUNNY     69  42  36 SW8       29.95F
WOODRUFF       SUNNY     69  42  36 SW8       29.95F
RHINELANDER    SUNNY     68  41  37 SW9       29.98S
EAGLE RIVER    SUNNY     66  36  32 S5        29.96F
LAND O LAKES   SUNNY     67  35  30 SW5       29.98S
PHILLIPS       SUNNY     67  43  42 SW6       29.95F
TOMAHAWK       SUNNY     67  41  38 SW3       29.98S
MEDFORD        CLOUDY    66  45  46 S7        29.98S
MERRILL        SUNNY     69  46  43 SW3       29.98F
$$

WIZ029-030-035-036-043>047-172300-
CENTRAL WISCONSIN

CITY           SKY/WX    TMP DP  RH WIND       PRES   REMARKS
WAUSAU         CLOUDY    66  44  45 SW7       29.97S
MOSINEE        PTSUNNY   66  48  52 S10       30.00S
MARSHFIELD     SUNNY     67  44  43 S9        29.98S
STEVENS POINT  CLOUDY    67  44  43 S12       30.00S
WAUPACA        CLOUDY    71  46  40 SW6       30.00S
WAUTOMA        SUNNY     69  46  43 S9        30.01S
WISC RAPIDS    CLOUDY    67  48  50 S7        30.00F
CAMP DOUGLAS   NOT AVBL
$$

WIZ011>013-019>022-031-037>040-048>050-172300-
NORTHEAST WISCONSIN

CITY           SKY/WX    TMP DP  RH WIND       PRES   REMARKS
ANTIGO         SUNNY     65  46  49 SW7       30.00S
SHAWANO        MOSUNNY   68  45  43 SW3       29.99S
OCONTO         CLOUDY    63  50  62 S3        29.99S
STURGEON BAY   CLEAR     65  48  54 S7        30.01S
GREEN BAY      CLOUDY    67  50  54 S7        30.00S
MANITOWOC      CLOUDY    66  49  54 E5        30.02S
APPLETON       MOSUNNY   66  43  42 SW8       30.00S
CLINTONVILLE   CLOUDY    70  45  40 SW9       29.99F
OSHKOSH        CLOUDY    68  48  48 SW9       30.00F
$$

WIZ032>034-041-042-053>061-172300-
SOUTHWEST WISCONSIN

CITY           SKY/WX    TMP DP  RH WIND       PRES   REMARKS
LA CROSSE      SUNNY     71  46  40 S9        29.98F
SPARTA         SUNNY     69  46  44 S10       30.01S
VIROQUA        SUNNY     69  46  44 SW8       30.02F
BOSCOBEL       SUNNY     74  42  31 SW15G21   30.01F
PRAIRIE DU CHI SUNNY     73  40  29 S9        30.01F
PLATTEVILLE    SUNNY     71  44  38 SW13G21   30.06F
$$

WIZ056-057-062-063-064-067-068-172300-
SOUTH CENTRAL WISCONSIN

CITY           SKY/WX    TMP DP  RH WIND       PRES   REMARKS
REEDSBURG      SUNNY     69  46  44 SW12      30.01F
BARABOO/DELLS  SUNNY     68  44  40 SW12      30.02F
LONE ROCK      SUNNY     71  46  40 SW9       30.02F
MINERAL POINT  SUNNY     72  41  33 SW12      30.05F
MADISON        MOSUNNY   70  44  39 SW7       30.04S
MIDDLETON      SUNNY     72  42  34 SW14      30.05S
WATERTOWN      SUNNY     70  44  39 SW14G20   30.04F
MONROE         SUNNY     70  41  35 S15G23    30.07S
JANESVILLE     MOSUNNY   72  41  33 SW16G23   30.07S
$$

WIZ051-052-058>065-066-070>072-172300-
SOUTHEAST WISCONSIN

CITY           SKY/WX    TMP DP  RH WIND       PRES   REMARKS
MILWAUKEE      MOSUNNY   71  44  37 SW20G25   30.06S
WAUKESHA       SUNNY     68  41  37 SW9G18    30.06F
MILWAUKEE/TIMM SUNNY     72  37  28 SW14G22   30.05F
RACINE         SUNNY     71  43  36 SW15G22   30.08S
BURLINGTON     SUNNY     70  45  40 SW16G22   30.08S
KENOSHA        SUNNY     70  42  36 SW14G26   30.08S
FOND DU LAC    SUNNY     69  43  38 SW10G17   30.02F
SHEBOYGAN      SUNNY     67  47  48 SW8       30.02F
WEST BEND      SUNNY     70  41  35 SW8       30.03F
JUNEAU         SUNNY     69  45  42 S12G17    30.04F
$$

LSZ147-162-172300-
LAKE SUPERIOR

STATION/POSITION TIME  TEMP    WIND        PRES    WAVE
                       AIR SEA DIR/SP/G            HT/PER
                 (UTC) (F)     (DEG/KT/KT) (MB)    (FT/S)
W MID LAKE BUOY  2050   54 53              1013.0F   1/ 4
DEVILS ISLAND    2100   57     130/  3/  4 1012.7F
SAXON HARBOR     2140   65      70/  5/  8 1012.2F
$$

LMZ867-665-643>646-172300-
LAKE MICHIGAN

STATION/POSITION TIME  TEMP    WIND        PRES    WAVE
                       AIR SEA DIR/SP/G            HT/PER
                 (UTC) (F)     (DEG/KT/KT) (MB)    (FT/S)
S GREEN BAY BUOY 2100   62 58  190/ 10/ 12 1015.6
N MID LAKE BUOY  2050   59 59  200/ 16/ 17 1016.4R   4/ 6
NORTHPORT PIER   2140   62     160/  6/ 11 1015.6S
KEWAUNEE LAKESHO 2130   58     180/  8/ 11 1015.7R
SHEBOYGAN LAKESH 2100   63     170/  8/  9 1016.4F
PORT WASHINGTON  2140   73     240/  9/ 14 1017.6F
MILWAUKEE LAKESH 2130   71     230/ 16/ 18   N/A
S MID LAKE BUOY  2050   64 62  220/ 17/ 21 1018.9F   4/ 6
KENOSHA   LAKESH 2100   71     230/ 16/ 23 1018.6
$$

TC  - TEMPERATURE IN CELSIUS
VSB - VISIBILITY IN STATUTE MILES
WCI - WIND CHILL INDEX
HX  - HEAT INDEX





USA.gov is the U.S. government's official web portal to all federal, state and local government web resources and services.